Year,Month,Day,Hour,Minute,Value (Times are PST for temperature in C)
2011,06,26,00,00,11.90
2011,06,26,00,01,11.80
2011,06,26,00,02,11.80
2011,06,26,00,03,11.70
2011,06,26,00,04,11.60
2011,06,26,00,05,11.60
2011,06,26,00,06,11.50
2011,06,26,00,07,11.50
2011,06,26,00,08,11.40
2011,06,26,00,09,11.40
2011,06,26,00,10,11.30
2011,06,26,00,11,11.30
2011,06,26,00,12,11.30
2011,06,26,00,13,11.20
2011,06,26,00,14,11.20
2011,06,26,00,15,11.20
2011,06,26,00,16,11.20
2011,06,26,00,17,11.10
2011,06,26,00,18,11.10
2011,06,26,00,19,11.10
2011,06,26,00,20,11.10
2011,06,26,00,21,11.00
2011,06,26,00,22,11.00
2011,06,26,00,23,11.00
2011,06,26,00,24,10.90
2011,06,26,00,25,10.90
2011,06,26,00,26,10.90
2011,06,26,00,27,10.80
2011,06,26,00,28,10.80
2011,06,26,00,29,10.80
2011,06,26,00,30,10.80
2011,06,26,00,31,10.70
2011,06,26,00,32,10.70
2011,06,26,00,33,10.70
2011,06,26,00,34,10.70
2011,06,26,00,35,10.60
2011,06,26,00,36,10.60
2011,06,26,00,37,10.60
2011,06,26,00,38,10.60
2011,06,26,00,39,10.60
2011,06,26,00,40,10.60
2011,06,26,00,41,10.50
2011,06,26,00,42,10.50
2011,06,26,00,43,10.50
2011,06,26,00,44,10.50
2011,06,26,00,45,10.50
2011,06,26,00,46,10.50
2011,06,26,00,47,10.50
2011,06,26,00,48,10.50
2011,06,26,00,49,10.50
2011,06,26,00,50,10.50
2011,06,26,00,51,10.40
2011,06,26,00,52,10.40
2011,06,26,00,53,10.40
2011,06,26,00,54,10.40
2011,06,26,00,55,10.40
2011,06,26,00,56,10.40
2011,06,26,00,57,10.30
2011,06,26,00,58,10.30
2011,06,26,00,59,10.30
2011,06,26,01,00,10.20
2011,06,26,01,01,10.20
2011,06,26,01,02,10.20
2011,06,26,01,03,10.20
2011,06,26,01,04,10.10
2011,06,26,01,05,10.10
2011,06,26,01,06,10.10
2011,06,26,01,07,10.00
2011,06,26,01,08,10.00
2011,06,26,01,09,10.00
2011,06,26,01,10,10.00
2011,06,26,01,11,9.90
2011,06,26,01,12,9.90
2011,06,26,01,13,9.90
2011,06,26,01,14,9.90
2011,06,26,01,15,9.80
2011,06,26,01,16,9.80
2011,06,26,01,17,9.80
2011,06,26,01,18,9.70
2011,06,26,01,19,9.70
2011,06,26,01,20,9.60
2011,06,26,01,21,9.60
2011,06,26,01,22,9.60
2011,06,26,01,23,9.60
2011,06,26,01,24,9.60
2011,06,26,01,25,9.50
2011,06,26,01,26,9.50
2011,06,26,01,27,9.50
2011,06,26,01,28,9.40
2011,06,26,01,29,9.40
2011,06,26,01,30,9.40
2011,06,26,01,31,9.40
2011,06,26,01,32,9.40
2011,06,26,01,33,9.40
2011,06,26,01,34,9.40
2011,06,26,01,35,9.30
2011,06,26,01,36,9.30
2011,06,26,01,37,9.30
2011,06,26,01,38,9.40
2011,06,26,01,39,9.40
2011,06,26,01,40,9.40
2011,06,26,01,41,9.40
2011,06,26,01,42,9.50
2011,06,26,01,43,9.50
2011,06,26,01,44,9.60
2011,06,26,01,45,9.60
2011,06,26,01,46,9.60
2011,06,26,01,47,9.60
2011,06,26,01,48,9.60
2011,06,26,01,49,9.60
2011,06,26,01,50,9.60
2011,06,26,01,51,9.50
2011,06,26,01,52,9.50
2011,06,26,01,53,9.50
2011,06,26,01,54,9.50
2011,06,26,01,55,9.50
2011,06,26,01,56,9.60
2011,06,26,01,57,9.60
2011,06,26,01,58,9.60
2011,06,26,01,59,9.60
2011,06,26,02,00,9.60
2011,06,26,02,01,9.60
2011,06,26,02,02,9.60
2011,06,26,02,03,9.60
2011,06,26,02,04,9.60
2011,06,26,02,05,9.60
2011,06,26,02,06,9.60
2011,06,26,02,07,9.60
2011,06,26,02,08,9.60
2011,06,26,02,09,9.60
2011,06,26,02,10,9.60
2011,06,26,02,11,9.60
2011,06,26,02,12,9.50
2011,06,26,02,13,9.50
2011,06,26,02,14,9.50
2011,06,26,02,15,9.40
2011,06,26,02,16,9.40
2011,06,26,02,17,9.40
2011,06,26,02,18,9.40
2011,06,26,02,19,9.40
2011,06,26,02,20,9.40
2011,06,26,02,21,9.30
2011,06,26,02,22,9.30
2011,06,26,02,23,9.30
2011,06,26,02,24,9.30
2011,06,26,02,25,9.30
2011,06,26,02,26,9.20
2011,06,26,02,27,9.20
2011,06,26,02,28,9.20
2011,06,26,02,29,9.10
2011,06,26,02,30,9.10
2011,06,26,02,31,9.10
2011,06,26,02,32,9.10
2011,06,26,02,33,9.10
2011,06,26,02,34,9.00
2011,06,26,02,35,9.00
2011,06,26,02,36,9.00
2011,06,26,02,37,8.90
2011,06,26,02,38,8.90
2011,06,26,02,39,8.90
2011,06,26,02,40,8.90
2011,06,26,02,41,8.90
2011,06,26,02,42,8.90
2011,06,26,02,43,8.90
2011,06,26,02,44,8.90
2011,06,26,02,45,8.90
2011,06,26,02,46,8.90
2011,06,26,02,47,8.90
2011,06,26,02,48,8.90
2011,06,26,02,49,8.90
2011,06,26,02,50,8.90
2011,06,26,02,51,8.90
2011,06,26,02,52,8.90
2011,06,26,02,53,8.90
2011,06,26,02,54,8.90
2011,06,26,02,55,8.90
2011,06,26,02,56,8.90
2011,06,26,02,57,8.90
2011,06,26,02,58,8.90
2011,06,26,02,59,8.90
2011,06,26,03,00,8.90
2011,06,26,03,01,8.90
2011,06,26,03,02,8.90
2011,06,26,03,03,8.90
2011,06,26,03,04,8.80
2011,06,26,03,05,8.80
2011,06,26,03,06,8.80
2011,06,26,03,07,8.80
2011,06,26,03,08,8.80
2011,06,26,03,09,8.90
2011,06,26,03,10,8.90
2011,06,26,03,11,8.90
2011,06,26,03,12,8.90
2011,06,26,03,13,8.90
2011,06,26,03,14,8.90
2011,06,26,03,15,8.80
2011,06,26,03,16,8.80
2011,06,26,03,17,8.80
2011,06,26,03,18,8.80
2011,06,26,03,19,8.80
2011,06,26,03,20,8.80
2011,06,26,03,21,8.80
2011,06,26,03,22,8.80
2011,06,26,03,23,8.70
2011,06,26,03,24,8.70
2011,06,26,03,25,8.70
2011,06,26,03,26,8.70
2011,06,26,03,27,8.70
2011,06,26,03,28,8.70
2011,06,26,03,29,8.60
2011,06,26,03,30,8.60
2011,06,26,03,31,8.60
2011,06,26,03,32,8.60
2011,06,26,03,33,8.60
2011,06,26,03,34,8.60
2011,06,26,03,35,8.60
2011,06,26,03,36,8.60
2011,06,26,03,37,8.50
2011,06,26,03,38,8.50
2011,06,26,03,39,8.50
2011,06,26,03,40,8.50
2011,06,26,03,41,8.50
2011,06,26,03,42,8.50
2011,06,26,03,43,8.40
2011,06,26,03,44,8.40
2011,06,26,03,45,8.40
2011,06,26,03,46,8.40
2011,06,26,03,47,8.40
2011,06,26,03,48,8.40
2011,06,26,03,49,8.40
2011,06,26,03,50,8.40
2011,06,26,03,51,8.40
2011,06,26,03,52,8.40
2011,06,26,03,53,8.30
2011,06,26,03,54,8.30
2011,06,26,03,55,8.30
2011,06,26,03,56,8.30
2011,06,26,03,57,8.30
2011,06,26,03,58,8.20
2011,06,26,03,59,8.20
2011,06,26,04,00,8.20
2011,06,26,04,01,8.20
2011,06,26,04,02,8.20
2011,06,26,04,03,8.20
2011,06,26,04,04,8.20
2011,06,26,04,05,8.20
2011,06,26,04,06,8.20
2011,06,26,04,07,8.10
2011,06,26,04,08,8.10
2011,06,26,04,09,8.10
2011,06,26,04,10,8.10
2011,06,26,04,11,8.10
2011,06,26,04,12,8.10
2011,06,26,04,13,8.10
2011,06,26,04,14,8.10
2011,06,26,04,15,8.00
2011,06,26,04,16,8.00
2011,06,26,04,17,8.00
2011,06,26,04,18,7.90
2011,06,26,04,19,7.90
2011,06,26,04,20,7.90
2011,06,26,04,21,7.90
2011,06,26,04,22,7.90
2011,06,26,04,23,7.90
2011,06,26,04,24,7.80
2011,06,26,04,25,7.80
2011,06,26,04,26,7.80
2011,06,26,04,27,7.80
2011,06,26,04,28,7.80
2011,06,26,04,29,7.90
2011,06,26,04,30,7.90
2011,06,26,04,31,7.90
2011,06,26,04,32,7.90
2011,06,26,04,33,7.90
2011,06,26,04,34,7.90
2011,06,26,04,35,7.90
2011,06,26,04,36,7.90
2011,06,26,04,37,7.90
2011,06,26,04,38,7.90
2011,06,26,04,39,7.90
2011,06,26,04,40,7.90
2011,06,26,04,41,7.90
2011,06,26,04,42,7.90
2011,06,26,04,43,7.90
2011,06,26,04,44,7.80
2011,06,26,04,45,7.80
2011,06,26,04,46,7.80
2011,06,26,04,47,7.80
2011,06,26,04,48,7.80
2011,06,26,04,49,7.80
2011,06,26,04,50,7.80
2011,06,26,04,51,7.80
2011,06,26,04,52,7.80
2011,06,26,04,53,7.80
2011,06,26,04,54,7.80
2011,06,26,04,55,7.80
2011,06,26,04,56,7.80
2011,06,26,04,57,7.80
2011,06,26,04,58,7.80
2011,06,26,04,59,7.80
2011,06,26,05,00,7.80
2011,06,26,05,01,7.80
2011,06,26,05,02,7.80
2011,06,26,05,03,7.80
2011,06,26,05,04,7.80
2011,06,26,05,05,7.70
2011,06,26,05,06,7.70
2011,06,26,05,07,7.70
2011,06,26,05,08,7.70
2011,06,26,05,09,7.70
2011,06,26,05,10,7.70
2011,06,26,05,11,7.70
2011,06,26,05,12,7.70
2011,06,26,05,13,7.70
2011,06,26,05,14,7.70
2011,06,26,05,15,7.70
2011,06,26,05,16,7.70
2011,06,26,05,17,7.60
2011,06,26,05,18,7.60
2011,06,26,05,19,7.60
2011,06,26,05,20,7.60
2011,06,26,05,21,7.60
2011,06,26,05,22,7.60
2011,06,26,05,23,7.60
2011,06,26,05,24,7.60
2011,06,26,05,25,7.50
2011,06,26,05,26,7.50
2011,06,26,05,27,7.50
2011,06,26,05,28,7.50
2011,06,26,05,29,7.50
2011,06,26,05,30,7.40
2011,06,26,05,31,7.40
2011,06,26,05,32,7.40
2011,06,26,05,33,7.40
2011,06,26,05,34,7.40
2011,06,26,05,35,7.40
2011,06,26,05,36,7.50
2011,06,26,05,37,7.50
2011,06,26,05,38,7.50
2011,06,26,05,39,7.50
2011,06,26,05,40,7.50
2011,06,26,05,41,7.50
2011,06,26,05,42,7.50
2011,06,26,05,43,7.50
2011,06,26,05,44,7.50
2011,06,26,05,45,7.50
2011,06,26,05,46,7.50
2011,06,26,05,47,7.50
2011,06,26,05,48,7.50
2011,06,26,05,49,7.50
2011,06,26,05,50,7.50
2011,06,26,05,51,7.60
2011,06,26,05,52,7.50
2011,06,26,05,53,7.60
2011,06,26,05,54,7.50
2011,06,26,05,55,7.60
2011,06,26,05,56,7.60
2011,06,26,05,57,7.60
2011,06,26,05,58,7.60
2011,06,26,05,59,7.60
2011,06,26,06,00,7.60
2011,06,26,06,01,7.60
2011,06,26,06,02,7.70
2011,06,26,06,03,7.80
2011,06,26,06,04,7.80
2011,06,26,06,05,7.90
2011,06,26,06,06,8.00
2011,06,26,06,07,8.00
2011,06,26,06,08,8.10
2011,06,26,06,09,8.10
2011,06,26,06,10,8.10
2011,06,26,06,11,8.20
2011,06,26,06,12,8.20
2011,06,26,06,13,8.20
2011,06,26,06,14,8.20
2011,06,26,06,15,8.20
2011,06,26,06,16,8.20
2011,06,26,06,17,8.20
2011,06,26,06,18,8.20
2011,06,26,06,19,8.20
2011,06,26,06,20,8.20
2011,06,26,06,21,8.20
2011,06,26,06,22,8.20
2011,06,26,06,23,8.20
2011,06,26,06,24,8.20
2011,06,26,06,25,8.20
2011,06,26,06,26,8.20
2011,06,26,06,27,8.30
2011,06,26,06,28,8.30
2011,06,26,06,29,8.30
2011,06,26,06,30,8.40
2011,06,26,06,31,8.40
2011,06,26,06,32,8.50
2011,06,26,06,33,8.50
2011,06,26,06,34,8.60
2011,06,26,06,35,8.60
2011,06,26,06,36,8.70
2011,06,26,06,37,8.70
2011,06,26,06,38,8.80
2011,06,26,06,39,8.80
2011,06,26,06,40,8.90
2011,06,26,06,41,8.90
2011,06,26,06,42,9.00
2011,06,26,06,43,9.00
2011,06,26,06,44,9.10
2011,06,26,06,45,9.10
2011,06,26,06,46,9.10
2011,06,26,06,47,9.10
2011,06,26,06,48,9.10
2011,06,26,06,49,9.10
2011,06,26,06,50,9.10
2011,06,26,06,51,9.20
2011,06,26,06,52,9.20
2011,06,26,06,53,9.20
2011,06,26,06,54,9.20
2011,06,26,06,55,9.20
2011,06,26,06,56,9.30
2011,06,26,06,57,9.30
2011,06,26,06,58,9.30
2011,06,26,06,59,9.40
2011,06,26,07,00,9.50
2011,06,26,07,01,9.50
2011,06,26,07,02,9.60
2011,06,26,07,03,9.60
2011,06,26,07,04,9.70
2011,06,26,07,05,9.70
2011,06,26,07,06,9.80
2011,06,26,07,07,9.80
2011,06,26,07,08,9.90
2011,06,26,07,09,10.00
2011,06,26,07,10,10.00
2011,06,26,07,11,10.10
2011,06,26,07,12,10.10
2011,06,26,07,13,10.20
2011,06,26,07,14,10.20
2011,06,26,07,15,10.20
2011,06,26,07,16,10.20
2011,06,26,07,17,10.20
2011,06,26,07,18,10.20
2011,06,26,07,19,10.20
2011,06,26,07,20,10.20
2011,06,26,07,21,10.20
2011,06,26,07,22,10.20
2011,06,26,07,23,10.30
2011,06,26,07,24,10.30
2011,06,26,07,25,10.40
2011,06,26,07,26,10.40
2011,06,26,07,27,10.50
2011,06,26,07,28,10.50
2011,06,26,07,29,10.60
2011,06,26,07,30,10.60
2011,06,26,07,31,10.70
2011,06,26,07,32,10.70
2011,06,26,07,33,10.80
2011,06,26,07,34,10.80
2011,06,26,07,35,10.80
2011,06,26,07,36,10.80
2011,06,26,07,37,10.70
2011,06,26,07,38,10.70
2011,06,26,07,39,10.70
2011,06,26,07,40,10.70
2011,06,26,07,41,10.70
2011,06,26,07,42,10.70
2011,06,26,07,43,10.70
2011,06,26,07,44,10.70
2011,06,26,07,45,10.70
2011,06,26,07,46,10.70
2011,06,26,07,47,10.70
2011,06,26,07,48,10.70
2011,06,26,07,49,10.70
2011,06,26,07,50,10.70
2011,06,26,07,51,10.70
2011,06,26,07,52,10.60
2011,06,26,07,53,10.60
2011,06,26,07,54,10.60
2011,06,26,07,55,10.70
2011,06,26,07,56,10.70
2011,06,26,07,57,10.70
2011,06,26,07,58,10.70
2011,06,26,07,59,10.70
2011,06,26,08,00,10.70
2011,06,26,08,01,10.70
2011,06,26,08,02,10.80
2011,06,26,08,03,10.80
2011,06,26,08,04,10.80
2011,06,26,08,05,10.80
2011,06,26,08,06,10.80
2011,06,26,08,07,10.80
2011,06,26,08,08,10.80
2011,06,26,08,09,10.80
2011,06,26,08,10,10.80
2011,06,26,08,11,10.90
2011,06,26,08,12,10.90
2011,06,26,08,13,11.00
2011,06,26,08,14,11.00
2011,06,26,08,15,11.10
2011,06,26,08,16,11.10
2011,06,26,08,17,11.20
2011,06,26,08,18,11.30
2011,06,26,08,19,11.30
2011,06,26,08,20,11.40
2011,06,26,08,21,11.40
2011,06,26,08,22,11.50
2011,06,26,08,23,11.60
2011,06,26,08,24,11.70
2011,06,26,08,25,11.70
2011,06,26,08,26,11.80
2011,06,26,08,27,11.90
2011,06,26,08,28,12.00
2011,06,26,08,29,12.10
2011,06,26,08,30,12.20
2011,06,26,08,31,12.30
2011,06,26,08,32,12.30
2011,06,26,08,33,12.40
2011,06,26,08,34,12.50
2011,06,26,08,35,12.60
2011,06,26,08,36,12.70
2011,06,26,08,37,12.80
2011,06,26,08,38,12.90
2011,06,26,08,39,13.00
2011,06,26,08,40,13.00
2011,06,26,08,41,13.10
2011,06,26,08,42,13.10
2011,06,26,08,43,13.20
2011,06,26,08,44,13.30
2011,06,26,08,45,13.40
2011,06,26,08,46,13.40
2011,06,26,08,47,13.50
2011,06,26,08,48,13.70
2011,06,26,08,49,13.80
2011,06,26,08,50,13.80
2011,06,26,08,51,13.90
2011,06,26,08,52,14.00
2011,06,26,08,53,14.00
2011,06,26,08,54,14.10
2011,06,26,08,55,14.10
2011,06,26,08,56,14.20
2011,06,26,08,57,14.20
2011,06,26,08,58,14.30
2011,06,26,08,59,14.30
2011,06,26,09,00,14.40
2011,06,26,09,01,14.40
2011,06,26,09,02,14.50
2011,06,26,09,03,14.50
2011,06,26,09,04,14.60
2011,06,26,09,05,14.60
2011,06,26,09,06,14.70
2011,06,26,09,07,14.70
2011,06,26,09,08,14.80
2011,06,26,09,09,14.90
2011,06,26,09,10,15.00
2011,06,26,09,11,15.00
2011,06,26,09,12,15.00
2011,06,26,09,13,15.00
2011,06,26,09,14,15.10
2011,06,26,09,15,15.20
2011,06,26,09,16,15.30
2011,06,26,09,17,15.40
2011,06,26,09,18,15.50
2011,06,26,09,19,15.50
2011,06,26,09,20,15.70
2011,06,26,09,21,15.70
2011,06,26,09,22,15.80
2011,06,26,09,23,15.90
2011,06,26,09,24,15.90
2011,06,26,09,25,16.00
2011,06,26,09,26,16.10
2011,06,26,09,27,16.20
2011,06,26,09,28,16.30
2011,06,26,09,29,16.30
2011,06,26,09,30,16.30
2011,06,26,09,31,16.30
2011,06,26,09,32,16.30
2011,06,26,09,33,16.30
2011,06,26,09,34,16.30
2011,06,26,09,35,16.30
2011,06,26,09,36,16.30
2011,06,26,09,37,16.30
2011,06,26,09,38,16.30
2011,06,26,09,39,16.30
2011,06,26,09,40,16.30
2011,06,26,09,41,16.40
2011,06,26,09,42,16.40
2011,06,26,09,43,16.50
2011,06,26,09,44,16.60
2011,06,26,09,45,16.80
2011,06,26,09,46,16.90
2011,06,26,09,47,17.00
2011,06,26,09,48,17.00
2011,06,26,09,49,17.10
2011,06,26,09,50,17.10
2011,06,26,09,51,17.20
2011,06,26,09,52,17.20
2011,06,26,09,53,17.20
2011,06,26,09,54,17.20
2011,06,26,09,55,17.20
2011,06,26,09,56,17.20
2011,06,26,09,57,17.30
2011,06,26,09,58,17.30
2011,06,26,09,59,17.40
2011,06,26,10,00,17.40
2011,06,26,10,01,17.40
2011,06,26,10,02,17.50
2011,06,26,10,03,17.50
2011,06,26,10,04,17.60
2011,06,26,10,05,17.60
2011,06,26,10,06,17.60
2011,06,26,10,07,17.70
2011,06,26,10,08,17.80
2011,06,26,10,09,17.90
2011,06,26,10,10,18.00
2011,06,26,10,11,18.10
2011,06,26,10,12,18.20
2011,06,26,10,13,18.30
2011,06,26,10,14,18.30
2011,06,26,10,15,18.40
2011,06,26,10,16,18.50
2011,06,26,10,17,18.70
2011,06,26,10,18,18.70
2011,06,26,10,19,18.60
2011,06,26,10,20,18.50
2011,06,26,10,21,18.40
2011,06,26,10,22,18.30
2011,06,26,10,23,18.20
2011,06,26,10,24,18.20
2011,06,26,10,25,18.30
2011,06,26,10,26,18.30
2011,06,26,10,27,18.30
2011,06,26,10,28,18.30
2011,06,26,10,29,18.30
2011,06,26,10,30,18.30
2011,06,26,10,31,18.30
2011,06,26,10,32,18.30
2011,06,26,10,33,18.30
2011,06,26,10,34,18.40
2011,06,26,10,35,18.50
2011,06,26,10,36,18.60
2011,06,26,10,37,18.60
2011,06,26,10,38,18.70
2011,06,26,10,39,18.70
2011,06,26,10,40,18.70
2011,06,26,10,41,18.80
2011,06,26,10,42,18.80
2011,06,26,10,43,18.90
2011,06,26,10,44,18.90
2011,06,26,10,45,19.00
2011,06,26,10,46,18.90
2011,06,26,10,47,18.90
2011,06,26,10,48,18.80
2011,06,26,10,49,18.70
2011,06,26,10,50,18.60
2011,06,26,10,51,18.50
2011,06,26,10,52,18.50
2011,06,26,10,53,18.40
2011,06,26,10,54,18.40
2011,06,26,10,55,18.30
2011,06,26,10,56,18.30
2011,06,26,10,57,18.20
2011,06,26,10,58,18.20
2011,06,26,10,59,18.20
2011,06,26,11,00,18.20
2011,06,26,11,01,18.30
2011,06,26,11,02,18.40
2011,06,26,11,03,18.50
2011,06,26,11,04,18.70
2011,06,26,11,05,18.70
2011,06,26,11,06,18.70
2011,06,26,11,07,18.60
2011,06,26,11,08,18.60
2011,06,26,11,09,18.60
2011,06,26,11,10,18.50
2011,06,26,11,11,18.40
2011,06,26,11,12,18.40
2011,06,26,11,13,18.50
2011,06,26,11,14,18.60
2011,06,26,11,15,18.60
2011,06,26,11,16,18.70
2011,06,26,11,17,18.70
2011,06,26,11,18,18.70
2011,06,26,11,19,18.70
2011,06,26,11,20,18.80
2011,06,26,11,21,18.90
2011,06,26,11,22,19.00
2011,06,26,11,23,19.20
2011,06,26,11,24,19.30
2011,06,26,11,25,19.30
2011,06,26,11,26,19.40
2011,06,26,11,27,19.50
2011,06,26,11,28,19.40
2011,06,26,11,29,19.50
2011,06,26,11,30,19.50
2011,06,26,11,31,19.50
2011,06,26,11,32,19.50
2011,06,26,11,33,19.40
2011,06,26,11,34,19.40
2011,06,26,11,35,19.50
2011,06,26,11,36,19.50
2011,06,26,11,37,19.50
2011,06,26,11,38,19.40
2011,06,26,11,39,19.50
2011,06,26,11,40,19.50
2011,06,26,11,41,19.50
2011,06,26,11,42,19.50
2011,06,26,11,43,19.60
2011,06,26,11,44,19.60
2011,06,26,11,45,19.60
2011,06,26,11,46,19.60
2011,06,26,11,47,19.50
2011,06,26,11,48,19.40
2011,06,26,11,49,19.30
2011,06,26,11,50,19.20
2011,06,26,11,51,19.20
2011,06,26,11,52,19.30
2011,06,26,11,53,19.40
2011,06,26,11,54,19.40
2011,06,26,11,55,19.30
2011,06,26,11,56,19.20
2011,06,26,11,57,19.20
2011,06,26,11,58,19.20
2011,06,26,11,59,19.30
2011,06,26,12,00,19.30
2011,06,26,12,01,19.30
2011,06,26,12,02,19.30
2011,06,26,12,03,19.40
2011,06,26,12,04,19.40
2011,06,26,12,05,19.40
2011,06,26,12,06,19.40
2011,06,26,12,07,19.30
2011,06,26,12,08,19.20
2011,06,26,12,09,19.10
2011,06,26,12,10,19.00
2011,06,26,12,11,18.90
2011,06,26,12,12,19.00
2011,06,26,12,13,19.00
2011,06,26,12,14,19.10
2011,06,26,12,15,19.10
2011,06,26,12,16,19.20
2011,06,26,12,17,19.30
2011,06,26,12,18,19.40
2011,06,26,12,19,19.40
2011,06,26,12,20,19.50
2011,06,26,12,21,19.60
2011,06,26,12,22,19.60
2011,06,26,12,23,19.70
2011,06,26,12,24,19.80
2011,06,26,12,25,19.90
2011,06,26,12,26,20.00
2011,06,26,12,27,20.20
2011,06,26,12,28,20.30
2011,06,26,12,29,20.30
2011,06,26,12,30,20.40
2011,06,26,12,31,20.40
2011,06,26,12,32,20.40
2011,06,26,12,33,20.50
2011,06,26,12,34,20.60
2011,06,26,12,35,20.70
2011,06,26,12,36,20.80
2011,06,26,12,37,20.80
2011,06,26,12,38,20.80
2011,06,26,12,39,20.80
2011,06,26,12,40,20.80
2011,06,26,12,41,20.80
2011,06,26,12,42,20.80
2011,06,26,12,43,20.70
2011,06,26,12,44,20.70
2011,06,26,12,45,20.70
2011,06,26,12,46,20.60
2011,06,26,12,47,20.60
2011,06,26,12,48,20.50
2011,06,26,12,49,20.50
2011,06,26,12,50,20.50
2011,06,26,12,51,20.40
2011,06,26,12,52,20.40
2011,06,26,12,53,20.40
2011,06,26,12,54,20.30
2011,06,26,12,55,20.20
2011,06,26,12,56,20.10
2011,06,26,12,57,20.00
2011,06,26,12,58,20.10
2011,06,26,12,59,20.10
2011,06,26,13,00,20.20
2011,06,26,13,01,20.20
2011,06,26,13,02,20.10
2011,06,26,13,03,20.10
2011,06,26,13,04,20.10
2011,06,26,13,05,20.10
2011,06,26,13,06,20.10
2011,06,26,13,07,20.20
2011,06,26,13,08,20.20
2011,06,26,13,09,20.40
2011,06,26,13,10,20.50
2011,06,26,13,11,20.60
2011,06,26,13,12,20.70
2011,06,26,13,13,20.70
2011,06,26,13,14,20.70
2011,06,26,13,15,20.70
2011,06,26,13,16,20.70
2011,06,26,13,17,20.60
2011,06,26,13,18,20.70
2011,06,26,13,19,20.70
2011,06,26,13,20,20.70
2011,06,26,13,21,20.70
2011,06,26,13,22,20.80
2011,06,26,13,23,20.80
2011,06,26,13,24,20.70
2011,06,26,13,25,20.70
2011,06,26,13,26,20.70
2011,06,26,13,27,20.70
2011,06,26,13,28,20.80
2011,06,26,13,29,20.90
2011,06,26,13,30,20.90
2011,06,26,13,31,20.80
2011,06,26,13,32,20.70
2011,06,26,13,33,20.80
2011,06,26,13,34,20.80
2011,06,26,13,35,20.70
2011,06,26,13,36,20.60
2011,06,26,13,37,20.60
2011,06,26,13,38,20.60
2011,06,26,13,39,20.60
2011,06,26,13,40,20.60
2011,06,26,13,41,20.60
2011,06,26,13,42,20.70
2011,06,26,13,43,20.90
2011,06,26,13,44,21.00
2011,06,26,13,45,21.10
2011,06,26,13,46,21.10
2011,06,26,13,47,21.10
2011,06,26,13,48,20.90
2011,06,26,13,49,20.80
2011,06,26,13,50,20.80
2011,06,26,13,51,20.80
2011,06,26,13,52,20.90
2011,06,26,13,53,21.00
2011,06,26,13,54,21.10
2011,06,26,13,55,21.00
2011,06,26,13,56,20.90
2011,06,26,13,57,20.90
2011,06,26,13,58,20.80
2011,06,26,13,59,20.80
2011,06,26,14,00,20.90
2011,06,26,14,01,21.00
2011,06,26,14,02,21.00
2011,06,26,14,03,21.10
2011,06,26,14,04,21.20
2011,06,26,14,05,21.10
2011,06,26,14,06,21.00
2011,06,26,14,07,21.10
2011,06,26,14,08,21.20
2011,06,26,14,09,21.10
2011,06,26,14,10,21.00
2011,06,26,14,11,21.00
2011,06,26,14,12,20.90
2011,06,26,14,13,20.90
2011,06,26,14,14,20.90
2011,06,26,14,15,20.80
2011,06,26,14,16,20.80
2011,06,26,14,17,20.90
2011,06,26,14,18,21.00
2011,06,26,14,19,21.00
2011,06,26,14,20,21.10
2011,06,26,14,21,21.20
2011,06,26,14,22,21.20
2011,06,26,14,23,21.20
2011,06,26,14,24,21.30
2011,06,26,14,25,21.30
2011,06,26,14,26,21.20
2011,06,26,14,27,21.00
2011,06,26,14,28,20.90
2011,06,26,14,29,20.90
2011,06,26,14,30,21.00
2011,06,26,14,31,21.10
2011,06,26,14,32,21.20
2011,06,26,14,33,21.20
2011,06,26,14,34,21.20
2011,06,26,14,35,21.30
2011,06,26,14,36,21.20
2011,06,26,14,37,21.10
2011,06,26,14,38,21.10
2011,06,26,14,39,21.00
2011,06,26,14,40,20.90
2011,06,26,14,41,21.00
2011,06,26,14,42,21.30
2011,06,26,14,43,21.50
2011,06,26,14,44,21.70
2011,06,26,14,45,21.70
2011,06,26,14,46,21.60
2011,06,26,14,47,21.50
2011,06,26,14,48,21.40
2011,06,26,14,49,21.40
2011,06,26,14,50,21.40
2011,06,26,14,51,21.30
2011,06,26,14,52,21.40
2011,06,26,14,53,21.40
2011,06,26,14,54,21.50
2011,06,26,14,55,21.50
2011,06,26,14,56,21.40
2011,06,26,14,57,21.50
2011,06,26,14,58,21.60
2011,06,26,14,59,21.60
2011,06,26,15,00,21.60
2011,06,26,15,01,21.50
2011,06,26,15,02,21.50
2011,06,26,15,03,21.60
2011,06,26,15,04,21.60
2011,06,26,15,05,21.70
2011,06,26,15,06,21.70
2011,06,26,15,07,21.60
2011,06,26,15,08,21.40
2011,06,26,15,09,21.30
2011,06,26,15,10,21.20
2011,06,26,15,11,21.20
2011,06,26,15,12,21.30
2011,06,26,15,13,21.20
2011,06,26,15,14,21.20
2011,06,26,15,15,21.20
2011,06,26,15,16,21.20
2011,06,26,15,17,21.30
2011,06,26,15,18,21.30
2011,06,26,15,19,21.30
2011,06,26,15,20,21.20
2011,06,26,15,21,21.20
2011,06,26,15,22,21.20
2011,06,26,15,23,21.20
2011,06,26,15,24,21.20
2011,06,26,15,25,21.30
2011,06,26,15,26,21.20
2011,06,26,15,27,21.20
2011,06,26,15,28,21.20
2011,06,26,15,29,21.20
2011,06,26,15,30,21.30
2011,06,26,15,31,21.50
2011,06,26,15,32,21.60
2011,06,26,15,33,21.60
2011,06,26,15,34,21.60
2011,06,26,15,35,21.70
2011,06,26,15,36,21.70
2011,06,26,15,37,21.60
2011,06,26,15,38,21.60
2011,06,26,15,39,21.50
2011,06,26,15,40,21.60
2011,06,26,15,41,21.50
2011,06,26,15,42,21.50
2011,06,26,15,43,21.50
2011,06,26,15,44,21.40
2011,06,26,15,45,21.30
2011,06,26,15,46,21.20
2011,06,26,15,47,21.20
2011,06,26,15,48,21.10
2011,06,26,15,49,21.10
2011,06,26,15,50,21.00
2011,06,26,15,51,21.00
2011,06,26,15,52,20.90
2011,06,26,15,53,20.80
2011,06,26,15,54,20.70
2011,06,26,15,55,20.60
2011,06,26,15,56,20.50
2011,06,26,15,57,20.50
2011,06,26,15,58,20.50
2011,06,26,15,59,20.40
2011,06,26,16,00,20.40
2011,06,26,16,01,20.40
2011,06,26,16,02,20.40
2011,06,26,16,03,20.40
2011,06,26,16,04,20.40
2011,06,26,16,05,20.40
2011,06,26,16,06,20.40
2011,06,26,16,07,20.50
2011,06,26,16,08,20.50
2011,06,26,16,09,20.50
2011,06,26,16,10,20.40
2011,06,26,16,11,20.30
2011,06,26,16,12,20.30
2011,06,26,16,13,20.30
2011,06,26,16,14,20.30
2011,06,26,16,15,20.30
2011,06,26,16,16,20.20
2011,06,26,16,17,20.20
2011,06,26,16,18,20.10
2011,06,26,16,19,20.10
2011,06,26,16,20,20.10
2011,06,26,16,21,20.10
2011,06,26,16,22,20.00
2011,06,26,16,23,19.90
2011,06,26,16,24,19.90
2011,06,26,16,25,19.80
2011,06,26,16,26,19.80
2011,06,26,16,27,19.80
2011,06,26,16,28,19.70
2011,06,26,16,29,19.70
2011,06,26,16,30,19.70
2011,06,26,16,31,19.70
2011,06,26,16,32,19.70
2011,06,26,16,33,19.70
2011,06,26,16,34,19.70
2011,06,26,16,35,19.70
2011,06,26,16,36,19.70
2011,06,26,16,37,19.70
2011,06,26,16,38,19.70
2011,06,26,16,39,19.70
2011,06,26,16,40,19.70
2011,06,26,16,41,19.70
2011,06,26,16,42,19.70
2011,06,26,16,43,19.70
2011,06,26,16,44,19.70
2011,06,26,16,45,19.60
2011,06,26,16,46,19.60
2011,06,26,16,47,19.50
2011,06,26,16,48,19.50
2011,06,26,16,49,19.50
2011,06,26,16,50,19.40
2011,06,26,16,51,19.40
2011,06,26,16,52,19.30
2011,06,26,16,53,19.30
2011,06,26,16,54,19.30
2011,06,26,16,55,19.30
2011,06,26,16,56,19.30
2011,06,26,16,57,19.40
2011,06,26,16,58,19.40
2011,06,26,16,59,19.40
2011,06,26,17,00,19.50
2011,06,26,17,01,19.60
2011,06,26,17,02,19.60
2011,06,26,17,03,19.50
2011,06,26,17,04,19.40
2011,06,26,17,05,19.40
2011,06,26,17,06,19.40
2011,06,26,17,07,19.40
2011,06,26,17,08,19.40
2011,06,26,17,09,19.40
2011,06,26,17,10,19.40
2011,06,26,17,11,19.40
2011,06,26,17,12,19.40
2011,06,26,17,13,19.40
2011,06,26,17,14,19.40
2011,06,26,17,15,19.50
2011,06,26,17,16,19.50
2011,06,26,17,17,19.50
2011,06,26,17,18,19.60
2011,06,26,17,19,19.60
2011,06,26,17,20,19.60
2011,06,26,17,21,19.50
2011,06,26,17,22,19.50
2011,06,26,17,23,19.40
2011,06,26,17,24,19.40
2011,06,26,17,25,19.50
2011,06,26,17,26,19.50
2011,06,26,17,27,19.50
2011,06,26,17,28,19.60
2011,06,26,17,29,19.60
2011,06,26,17,30,19.60
2011,06,26,17,31,19.60
2011,06,26,17,32,19.60
2011,06,26,17,33,19.60
2011,06,26,17,34,19.70
2011,06,26,17,35,19.70